Regional Weather Roundup
Issued by NWS

Home | Current Version | Previous Version | Graphics & Text | Print | Product List | Glossary On
Versions: 1 2 3 4 5 6 7 8 9 10 11 12 13 14 15 16 17 18 19 20 21 22 23 24 25 26 27 28 29 30 31 32 33 34 35 36 37 38 39 40 41 42 43 44 45 46 47 48 49 50
360
ASUS43 KMPX 261801
RWRMN
WEATHER ROUNDUP FOR MINNESOTA
NATIONAL WEATHER SERVICE TWIN CITIES/CHANHASSEN MN
100 PM CDT WED JUL 26 2017


NOTE: "FAIR" INDICATES FEW OR NO CLOUDS BELOW 12,000 FEET WITH NO
SIGNIFICANT WEATHER AND/OR OBSTRUCTIONS TO VISIBILITY. N/A MEANS
CURRENT SKY AND/OR WEATHER CONDITIONS ARE NOT AVAILABLE.

MNZ060>063-068>070-261900-
   Twin Cities Metro

CITY           SKY/WX    TMP DP  RH WIND       PRES   REMARKS
TWIN CITIES    CLOUDY    78  70  76 NW5       30.00F
6HR MIN TEMP:  72; 6HR MAX TEMP:  78; 6HR PCP:  0.01;

ST PAUL        CLOUDY    77  72  84 NE5       30.00F
CRYSTAL        CLOUDY    80  65  59 N8        29.99F
BLAINE         PTSUNNY   81  68  65 NW9       30.00F
LAKEVILLE      CLOUDY    73  72  94 CALM      30.01S
SOUTH ST PAUL  CLOUDY    75  73  93 CALM      29.99F
LAKE ELMO      PTSUNNY   77  72  83 W3        30.01F
$$
MNZ001>005-007-008-013>017-022>024-027-028-261900-
   Northwest Minnesota

CITY           SKY/WX    TMP DP  RH WIND       PRES   REMARKS
BEMIDJI        PTSUNNY   76  59  55 NW10G16   30.04S
HALLOCK        SUNNY     77  61  57 N14       30.05S
ROSEAU         SUNNY     77  63  61 NW6G18    30.03S
WARROAD        MOSUNNY   75  63  64 NW9       30.03S
CROOKSTON      MOSUNNY   75  63  64 N12G20    30.07S
FOSSTON        PTSUNNY   75  61  60 NW8       30.07R
DETROIT LAKES  MOSUNNY   73  61  64 NW12      30.07F
MOORHEAD       SUNNY     79  61  53 NW8       30.06F
PARK RAPIDS    MOSUNNY   79  58  48 N7        30.04F
MAHNOMEN       CLOUDY    76  61  60 NW9G16    30.06S
$$
MNZ006-009>011-018-025>026-261900-
   North Central Minnesota

CITY           SKY/WX    TMP DP  RH WIND       PRES   REMARKS
BAUDETTE       MOSUNNY   76  61  59 NW12      30.02R
FLAG ISLAND    SUNNY     75  55  50 N14       30.00F
INTL FALLS     PTSUNNY   76  59  55 NW14      29.98S
6HR MIN TEMP:  61; 6HR MAX TEMP:  78;

WASKISH        CLOUDY    79  61  53 NW8       30.02S
BIG FORK       MOSUNNY   79  61  53 W5        30.01S
LONGVILLE      MOSUNNY   77  61  57 W10       30.04S
GRAND RAPIDS   MOSUNNY   75  60  59 NW8       30.04S
CRANE LAKE     MOSUNNY   73  57  56 N9        29.99F
ORR            MOSUNNY   75  55  50 NW8       29.97F
COOK             N/A     75  57  53 W6        30.00S
WALKER         FAIR      75  60  59 N7        30.04S
$$
MNZ012-019>021-037-261900-
   Northeast Minnesota

CITY           SKY/WX    TMP DP  RH WIND       PRES   REMARKS
DULUTH         MOSUNNY   76  61  59 NW7G17    30.00S
6HR MIN TEMP:  64; 6HR MAX TEMP:  78;

ELY            MOSUNNY   75  55  50 W10G16    29.99S
HIBBING        PTSUNNY   74  57  55 W6        30.01S
EVELETH        MOSUNNY   78  44  30 NW8       30.02S
DULUTH HARBOR  MOSUNNY   81  63  54 MISG      29.98S
TWO HARBORS    SUNNY     81  63  54 CALM      29.96F
GRAND MARAIS     N/A     67  60  78 W10       29.92F
$$
MNZ029>031-032-039>041-046>048-054>057-064-261900-
   West Central Minnesota

CITY           SKY/WX    TMP DP  RH WIND       PRES   REMARKS
FERGUS FALLS   SUNNY     75  61  60 NW13      30.06S
WHEATON        MOSUNNY   79  59  50 NW7       30.08F
MORRIS         SUNNY     81  63  54 NE7       30.06F
ALEXANDRIA     MOSUNNY   77  61  57 W7        30.08F
ELBOW LAKE     FAIR      76  60  58 N5        30.07F HAZE
WADENA         MOSUNNY   79  61  53 NW7       30.05F
GLENWOOD       MOSUNNY   79  59  50 NW9       30.07F
APPLETON       SUNNY     79  57  47 NE5       30.06S
BENSON         MOSUNNY   79  61  53 NE3       30.07F
ORTONVILLE     MOSUNNY   79  59  50 MISG      30.07F
MADISON        CLOUDY    81  61  50 NE6       30.06F
WILLMAR        FAIR      79  61  53 N5        30.06F
$$
MNZ033>034-036-042>043-049>051-058-059-261900-
   Central Minnesota

CITY           SKY/WX    TMP DP  RH WIND       PRES   REMARKS
ST CLOUD       CLOUDY    80  61  52 W8        30.03F
6HR MIN TEMP:  69; 6HR MAX TEMP:  80;

SAUK CENTRE    FAIR      78  59  53 N3        30.06S
PAYNESVILLE    MOSUNNY   80  59  48 NW9       30.05F
AITKIN         PTSUNNY   77  61  57 W3        30.02S
PINE RIVER     MOSUNNY   79  61  53 N7        30.06F
BRAINERD       SUNNY     78  59  51 NW6       30.03F
STAPLES        PTSUNNY   79  57  47 W7        30.05S
LONG PRAIRIE   FAIR      77  61  57 SW6       30.06F
LITTLE FALLS   MOSUNNY   77  55  47 NW8       30.04F
LITCHFIELD     CLOUDY    81  66  61 NW6       30.04F
BUFFALO          N/A     78  63  59 NW7       30.03F
MAPLE LAKE     CLOUDY    77  67  70 NW6       30.04F
HUTCHINSON     SUNNY     80  66  61 N8        30.04S
$$
MNZ037-044-045-052-053-261900-
   East Central Minnesota

CITY           SKY/WX    TMP DP  RH WIND       PRES   REMARKS
PRINCETON      CLOUDY    82  63  51 CALM      30.02F
MORA           SUNNY     77  59  53 NW6       30.04F
CAMBRIDGE      MOSUNNY   81  63  54 NW7       30.00F
RUSH CITY      PTSUNNY   78  63  60 W3        30.02S
MOOSE LAKE     MOSUNNY   77  61  57 CALM      30.00F
HINCKLEY       MOCLDY    77  61  57 W6        30.01F
CLOQUET        SUNNY     79  57  47 SW8       30.01S
MCGREGOR       PTSUNNY   77  61  57 W7        30.03S
$$
MNZ071>073-080-081-089-090-097-098-261900-
   Southwest Minnesota

CITY           SKY/WX    TMP DP  RH WIND       PRES   REMARKS
MONTEVIDEO     CLOUDY    81  64  57 NE9       30.05F
GRANITE FALLS  CLOUDY    81  64  57 N8        30.06S
CANBY          CLOUDY    81  60  49 CALM      30.07F
MARSHALL       CLOUDY    78  65  63 NE12      30.05S
REDWOOD FALLS  CLOUDY    80  64  58 NE7       30.03F
OLIVIA         CLOUDY    79  64  61 N9        30.04S
PIPESTONE      MOSUNNY   81  66  61 E6        30.06S
WINDOM         CLOUDY    77  70  78 NE5       30.04F
WORTHINGTON    CLOUDY    78  69  73 NE9       30.05F
JACKSON        CLOUDY    77  68  73 CALM      30.04F
TRACY          CLOUDY    78  71  79 NE6       30.05F
SLAYTON        HVY RAIN  74  65  71 N6        30.06F
$$
MNZ065>067-074>077-082>085-091>093-261900-
   South Central Minnesota

CITY           SKY/WX    TMP DP  RH WIND       PRES   REMARKS
MANKATO        CLOUDY    74  70  87 NW5       30.02F
NEW ULM        CLOUDY    75  68  78 CALM      30.02S
ST JAMES       CLOUDY    75  70  83 CALM      30.03F
FAIRMONT       CLOUDY    77  70  79 SE13      30.03S
GLENCOE        CLOUDY    80  72  77 NW6       30.01F
FARIBAULT      CLOUDY    72  72 100 CALM      30.02S
OWATONNA       LGT RAIN  73  72  94 W6        30.03R
WASECA         CLOUDY    72  68  88 NW5       30.04S
ALBERT LEA     CLOUDY    73  73 100 CALM      30.03R
$$
MNZ078>079-086>088-094>096-261900-
   Southeast Minnesota

CITY           SKY/WX    TMP DP  RH WIND       PRES   REMARKS
ROCHESTER      CLOUDY    74  71  91 SW6       30.02F
6HR MIN TEMP:  69; 6HR MAX TEMP:  74; 6HR PCP:  0.08;

RED WING       CLOUDY    73  70  88 CALM      29.98F
STANTON        CLOUDY    74  70  87 N3        29.99F
DODGE CENTER   LGT RAIN  75  70  83 CALM      30.03S
WINONA         CLOUDY    77  68  73 SW6       30.01R
AUSTIN         CLOUDY    73  70  88 CALM      30.01F
PRESTON        CLOUDY    73  69  88 S5        30.03F
$$
ABBREVIATIONS USED IN REMARKS
   TC - TEMPERATURES IN CELSIUS
  WCI - WIND CHILL INDEX
   HX - HEAT INDEX
  VSB - VISIBILITY
$$




USA.gov is the U.S. government's official web portal to all federal, state and local government web resources and services.